www.pogodaiklimat.ru

Погода и климат >> Архив погоды >> Латвия >> Даугавпилс


АРХИВ ПОГОДЫ в Даугавпилсе

Время (UTC), дата Ветер
(напр.,м/с)
 
Видим.   Явления Облачность Т
(С)
Тd
(С)
f
(%)
Тe
(С)
Тes
(С)
Комфортность P
(гПа)
Po
(гПа)
Тmin
(С)
Tmax
(С)
R
(мм)
R24
(мм)
S
(см)
03 10.07 З 2-4
{4}
20 км н/о +12.4 +11.5 94 +11 +11 холодно 1002.9 991.1
06 10.07 С 3-5
{6}
20 км 9/9 300 м
[]
+13.8 +11.1 84 +13 +15 холодно 1003.4 991.7 0
09 10.07 СЗ 3-6
{8}
19 км н/о +14.8 +12.0 83 +14 +15 очень
холодно
1003.7 992.0 0.2
12 10.07 С 3-7
{8}
20 км н/о +16.4 +10.8 69 +16 +16 очень
холодно
1003.8 992.2
15 10.07 З 1-2
{3}
20 км н/о +17.2 +13.5 79 +18 +23 прохладно 1004.3 992.7
18 10.07 -2
{7}
20 км н/о +14.5 +13.5 94 1005.7 994.0 0.8
21 10.07 СЗ 1-2
{3}
н/о н/о +12.6 +12.0 96 +13 +13 прохладно 1006.6 994.9
00 11.07 З 1-2
{4}
20 км 9/9 1000 м
[]
+12.4 +11.5 94 +12 +12 по сезону 1007.0 995.2
03 11.07 -3
{3}
20 км н/о +12.7 +11.7 94 1006.5 994.7
06 11.07 З 1-3
{3}
20 км 9/9 200 м
[]
+14.9 +12.5 86 +15 +15 прохладно 1006.8 995.1 0
09 11.07 -5
{5}
20 км н/о +16.9 +11.5 70 1006.6 995.0
12 11.07 З 3-5
{8}
20 км 9/9 1000 м
[]
+20.5 +9.3 49 +22 +28 комфорт 1005.9 994.4
15 11.07 -5
{5}
20 км н/о +15.1 +12.0 82 1007.1 995.4
18 11.07 З 1-1
{2}
20 км 10/0 2000 м
[]
+13.4 +12.1 92 +14 +14 холодно 1007.0 995.2
21 11.07 З 1-2
{2}
19 км 9/9 300 м
[]
+12.5 +12.1 97 +12 +12 холодно 1007.7 995.9
00 12.07 С 1-2
{2}
12 км 10/10 300 м
[]
+12.3 +12.2 99 +12 +12 по сезону 1007.4 995.8
03 12.07 -1
{2}
20 км н/о +11.8 +11.1 95 1007.5 995.7
06 12.07 С 3-5
{5}
20 км н/о +13.9 +8.2 68 +13 +18 холодно 1008.4 996.6
09 12.07 -5
{6}
20 км н/о +15.0 +4.9 51 1008.8 997.1
12 12.07 СЗ 2-4
{6}
20 км н/о +17.1 +4.7 44 +17 +25 холодно 1009.0 997.3
18 12.07 н/о
21 12.07 С 1-1
{1}
20 км н/о +8.2 +7.7 97 +7 +7 очень
холодно
1010.8 998.8
00 13.07 -1
{1}
4900 м н/о +6.2 +6.1 99 1011.0 998.9
03 13.07 СВ 1-1
{1}
200 м н/о +6.5 +6.4 99 +5 +5 очень
холодно
1010.5 998.4
06 13.07 ЮВ 1-2
{2}
20 км 9/0
[]
+15.2 +9.7 70 +16 +17 прохладно 1010.5 998.8 0
09 13.07 -3
{3}
20 км н/о +18.3 +5.4 43 1010.0 998.4
12 13.07 20 км н/о +17.9 +6.7 48 1009.5 997.9
15 13.07 ЮВ 2-3
{3}
20 км н/о +19.1 +5.8 42 +20 +21 прохладно 1009.5 997.9
18 13.07 штиль 0-1
{2}
20 км н/о +14.2 +9.6 74 +14 +14 холодно 1009.7 997.9
21 13.07 штиль 0-1
{1}
20 км н/о +10.3 +9.6 95 +9 +9 очень
холодно
1010.4 998.5
00 14.07 В 1-1
{2}
20 км н/о +10.5 +10.0 97 +10 +10 прохладно 1010.4 998.5
03 14.07 СВ 1-1
{1}
19 км н/о +10.7 +10.3 97 +10 +10 холодно 1010.2 998.3
06 14.07 В 1-3
{3}
20 км н/о +15.4 +10.9 75 +16 +19 прохладно 1010.3 998.6
09 14.07 СВ 1-3
{5}
20 км н/о +19.9 +8.5 48 +22 +22 комфорт 1010.5 999.0
12 14.07 -3
{6}
н/о н/о +19.7 +8.6 49 1010.3 998.7
15 14.07 ЮВ 2-4
{6}
20 км 10/10 1500 м
[]
+17.0 +11.2 69 +17 +17 холодно 1010.4 998.7 0.4
18 14.07 штиль 0-1
{2}
20 км ясно +16.7 +10.5 67 +17 +17 прохладно 1010.9 999.2
21 14.07 -2
{5}
20 км н/о +12.8 +10.1 84 1011.6 999.8
00 15.07 штиль 0-1
{1}
4400 м ясно +8.2 +7.8 97 +7 +7 очень
холодно
1012.1 1000.1
03 15.07 штиль 0-1
{1}
100 м ?/? +7.5 +7.4 99 +6 +6 очень
холодно
1012.0 999.9
06 15.07 С 1-2
{3}
20 км ясно +16.2 +10.0 67 +17 +24 прохладно 1011.7 1000.0 0
09 15.07 З 1-3
{3}
20 км 9/9 1500 м
[]
+18.9 +7.9 49 +21 +22 комфорт 1011.6 1000.0
12 15.07 -4
{4}
н/о н/о +21.1 +5.8 37 1010.5 999.0
15 15.07 З 2-5
{6}
20 км 4/4 1500 м
[]
+21.1 +8.4 44 +22 +22 комфорт 1010.3 998.9
18 15.07 СЗ 1-2
{3}
20 км ясно +18.5 +8.7 53 +20 +20 по сезону 1010.5 998.9
21 15.07 штиль 0-1
{1}
20 км н/о +10.6 +9.9 95 +10 +10 очень
холодно
1011.1 999.2
00 16.07 н/о
03 16.07 СВ 1-1
{2}
1700 м н/о +8.5 +8.4 99 +8 +8 очень
холодно
1009.8 997.8
06 16.07 ЮВ 1-2
{2}
20 км ясно +19.2 +11.7 62 +21 +29 комфорт 1008.3 996.8 0
09 16.07 ЮВ 2 18 км н/о +21.9 +9.2 44 +23 +23 комфорт 1006.9 995.6
12 16.07 Ю 2-5
{5}
6000 м 10/0 2000 м
[]
+15.6 +10.9 74 +16 +16 очень
холодно
1006.5 994.8 0.5
15 16.07 З 3-4
{7}
20 км н/о +13.9 +12.5 91 +13 +14 очень
холодно
1007.2 995.5
18 16.07 штиль 0-2
{2}
20 км 10/0 2000 м
[]
+13.4 +12.7 96 +13 +13 очень
холодно
1007.0 995.2 0.1
21 16.07 -1
{1}
18 км н/о +12.7 +12.5 99 1006.1 994.3 0.1

 

Местоположение метеостанции Даугавпилс (Латвия): широта 55.87 долгота 26.62 высота над уровнем моря 122 м.

В архиве по умолчанию представлена погода в Даугавпилсе за последнюю неделю. Архивные данные за месяц целиком и за предыдущие месяцы, начиная с января 2011 года, Вы можете получить, выбрав интересующий диапазон дат из раскрывающегося списка и нажав кнопку "Ввод!".


*Определитесь, кто Вы:
робот инопланетянин человек

Внимание! Время в таблицах - всемирное. Для получения местного времени необходимо прибавить поправку, которая равна 2 ч.

Смотрите также архив погоды в соседних городах и на ближайших метеорологических станциях:

Погода в Дукштасе (Литва) (43 км)
Погода в Утене (Литва) (74 км)
Погода в Шарковщине (Витебская область, Беларусь) (77 км)
Погода в Верхнедвинске (Витебская область, Беларусь) (83 км)
Погода в Резекне (Латвия) (84 км)
Погода в Зилани (Латвия) (84 км)
Погода в Швенчёнисе (Литва) (85 км)
Погода в Лынтупах (Витебская область, Беларусь) (93 км)
Погода в Нарочи (Минская область, Беларусь) (104 км)
Погода в Мадоне (Латвия) (111 км)

Пояснения к столбцам:

Ветер - указаны скорость ветра в м/с - средняя за 10 мин, порывы в срок и между сроками (в фигурных скобках) и направление, откуда дует ветер: С - северный, СВ - северо-восточный, В - восточный, ЮВ - юго-восточный, Ю - южный, ЮЗ - юго-западный, З - западный, СЗ - северо-западный.
Видимость - горизонтальная дальность видимости в метрах или километрах. При видимости от 1 до 10 км при отсутствии осадков обычно наблюдается дымка, при ухудшении видимости до 1 км и менее - туман. В сухую погоду видимость может ухудшаться дымом, пылью или мглою.
Явления - указаны атмосферные явления, наблюдавшиеся в срок или в последний час перед сроком; фигурными скобками обозначены явления, наблюдавшиеся между сроками (за 1-3 часа до срока); квадратными скобками обозначены град или гололедные отложения с указанием их диаметра в мм.
Облачность - указаны через наклонную черту общая и нижняя облачность в баллах и высота нижней границы облаков в метрах; квадратными скобками обозначены формы облаков: Ci - перистые, Cs - перисто-слоистые, Cc - перисто-кучевые, Ac - высококучевые, As - высокослоистые, Sc - слоисто-кучевые, Ns - слоисто-дождевые, Cu - кучевые, Cb - кучево-дождевые. Подробнее классификацию облаков см. в Атласе облаков (PDF).
T - Температура воздуха - температура, измеренная на высоте 2 м над землей.
Td - Температура точки росы - температура, при понижении до которой содержащийся в воздухе водяной пар достигнет насыщения.
f - Относительная влажность воздуха - влажноcть воздуха, измеренная на высоте 2 м над землей.
Te - Эффективная температура - температура, которую ощущает одетый по сезону человек в тени. Характеристика душности погоды. При расчете учитывается влияние влажности воздуха и скорости ветра на теплоощущения человека.
Tes - Эффективная температура на солнце - температура, которую ощущает человек, с поправкой на солнечный нагрев. Характеристика знойности погоды. Зависит от высоты солнца над горизонтом, облачности и скорости ветра. Ночью, в пасмурную погоду, а также при ветре 12 м/с и более поправка равна нулю.
P - Атмосферное давление - приведенное к уровню моря атмосферное давление.
Po - Атмосферное давление - измеренное на уровне метеостанции атмосферное давление.
Tmin - Минимальная температура - минимум температуры воздуха на высоте 2 м над землей.
Tmax - Максимальная температура - максимум температуры воздуха на высоте 2 м над землей.
R - Количество осадков - Количество выпавших осадков за период времени, мм. При наведении курсора мыши на число - период времени, за который выпало указанное количество осадков.
R24 - Количество осадков - Количество выпавших осадков за 24 часа, мм.
S - Снежный покров - Высота снежного покрова, см. При наведении курсора мыши на число - состояние снежного покрова и степень покрытия местности в баллах.